VJT13 SABE-SAZN

Flight info

Callsign VJT13
Flight time N/A
Altitude 24000
Route PAL9 TORUL UT654 BIXIM/N0229F260 UT669 ROPON ROPON3Q
Aircraft BE9L/L-SBDFGRY/SB1

Departure

Time 2026-05-06 19:32
Airport Aeroparque Jorge Newbery (SABE)

Arrival

Time N/A
Airport Presidente Perón International Airport (SAZN)
Time Latitude Longitude Altitude Speed Heading
2026-05-06 19:26 -34.55562 -58.41898 21 ft 0 kts 69°
2026-05-06 19:28 -34.55562 -58.41897 21 ft 0 kts 72°
2026-05-06 19:28 -34.55563 -58.41872 21 ft 4 kts 123°
2026-05-06 19:28 -34.55570 -58.41861 21 ft 0 kts 169°
2026-05-06 19:29 -34.55576 -58.41866 21 ft 5 kts 249°
2026-05-06 19:29 -34.55616 -58.41964 21 ft 17 kts 281°
2026-05-06 19:29 -34.55532 -58.42106 21 ft 23 kts 308°
2026-05-06 19:29 -34.55426 -58.42278 21 ft 26 kts 304°
2026-05-06 19:30 -34.55360 -58.42411 21 ft 12 kts 288°
2026-05-06 19:30 -34.55383 -58.42504 21 ft 12 kts 198°
2026-05-06 19:30 -34.55419 -58.42483 21 ft 0 kts 120°
2026-05-06 19:30 -34.55419 -58.42482 21 ft 0 kts 121°
2026-05-06 19:31 -34.55495 -58.42342 21 ft 53 kts 124°
2026-05-06 19:31 -34.55814 -58.41769 21 ft 106 kts 124°
2026-05-06 19:31 -34.56596 -58.40076 451 ft 133 kts 99°
2026-05-06 19:32 -34.56367 -58.38972 648 ft 146 kts 55°
2026-05-06 19:32 -34.55603 -58.38096 894 ft 156 kts 43°
2026-05-06 19:32 -34.55339 -58.37824 983 ft 158 kts 43°
2026-05-06 19:32 -34.54573 -58.36946 1488 ft 148 kts 52°
2026-05-06 19:33 -34.53957 -58.35982 1950 ft 141 kts 59°
2026-05-06 19:33 -34.53436 -58.35010 2359 ft 138 kts 62°
2026-05-06 19:33 -34.52951 -58.34003 2755 ft 138 kts 64°
2026-05-06 19:33 -34.52498 -58.32990 3137 ft 139 kts 62°
2026-05-06 19:34 -34.51720 -58.32290 3503 ft 145 kts 15°
2026-05-06 19:34 -34.50739 -58.32433 3862 ft 147 kts 329°
2026-05-06 19:34 -34.50103 -58.33337 4220 ft 143 kts 284°
2026-05-06 19:34 -34.50162 -58.34487 4579 ft 137 kts 240°
2026-05-06 19:35 -34.50594 -58.35500 4944 ft 136 kts 240°
2026-05-06 19:35 -34.51020 -58.36520 5305 ft 135 kts 240°
2026-05-06 19:35 -34.51439 -58.37529 5635 ft 137 kts 240°
2026-05-06 19:35 -34.51888 -58.38612 5768 ft 152 kts 241°
2026-05-06 19:36 -34.52375 -58.39792 5933 ft 161 kts 241°
2026-05-06 19:36 -34.52878 -58.41011 6155 ft 163 kts 241°
2026-05-06 19:36 -34.53388 -58.42252 6391 ft 166 kts 241°
2026-05-06 19:36 -34.53909 -58.43518 6639 ft 167 kts 242°
2026-05-06 19:37 -34.54429 -58.44787 6888 ft 168 kts 242°
2026-05-06 19:37 -34.54958 -58.46053 7128 ft 169 kts 244°
2026-05-06 19:37 -34.55473 -58.47325 7363 ft 170 kts 245°
2026-05-06 19:37 -34.55828 -58.48199 7527 ft 171 kts 245°
2026-05-06 19:38 -34.56528 -58.49919 7850 ft 171 kts 245°
2026-05-06 19:38 -34.57050 -58.51202 8089 ft 171 kts 245°
2026-05-06 19:38 -34.57571 -58.52483 8327 ft 171 kts 245°
2026-05-06 19:38 -34.58101 -58.53789 8566 ft 170 kts 245°
2026-05-06 19:39 -34.58621 -58.55073 8798 ft 170 kts 245°
2026-05-06 19:39 -34.59141 -58.56357 9028 ft 170 kts 245°
2026-05-06 19:39 -34.59658 -58.57637 9254 ft 169 kts 245°
2026-05-06 19:39 -34.60173 -58.58915 9477 ft 169 kts 245°
2026-05-06 19:40 -34.60337 -58.59320 9547 ft 169 kts 245°
2026-05-06 19:40 -34.56403 -58.41033 22 ft 0 kts 214°